Probability
0 0 0 0 0 0 0 0 0 0 0 0 0 0 0 0 0 0 0 0 0 0 0 0 0 0 0 0 0 0 0 0 0 0 0 0 0 0 0 0 0 0 0 0
0 0 0 0 0 0 0 0 0 0 0 0 0 0 0 0 0 0 0 0 0 0 0 0 0 0 0 0 0 0 0 0 0 0 0 0 0 0 0 0 0 0 0 0
0 0 0 0 0 0 0 0 0 0 0 0 0 0 0 0 0 0 0 0 0 0 0 0 0 0 0 0 0 0 0 0 0 0 0 0 0 0 0 0 0 0 0 0
0 0 0 0 0 0 0 0 0 0 0 0 0 0 0 0 0 0 0 0 0 0 0 0 0 0 0 0 0 0 0 0 0 0 0 0 0 0 0 0 0 0 0 0
0 0 0 0 0 0 0 0 0 0 0 0 0 0 0 0 0 0 0 0 0 0 0 0 0 0 0 0 0 0 0 0 0 0 0 0 0 0 0 0 0 0 0 0
0 0 0 0 0 0 0 0 0 0 0 0 0 0 0 0 0 0 0 0 0 0 0 0 0 0 0 0 0 0 0 0 0 0 0 0 0 0 0 0 0 0 0 0
0 0 0 0 0 0 0 0 0 0 0 0 0 0 0 0 0 0 0 0 0 0 0 0 0 0 0 0 0 0 0 0 0 0 0 0 0 0 0 0 0 0 0 0
0 0 0 0 0 0 0 0 0 0 0 0 0 0 0 0 0 0 0 0 0 0 0 0 0 0 0 0 0 0 0 0 0 0 0 0 0 0 0 0 0 0 0 0
0 0 0 0 0 0 0 0 0 0 0 0 0 0 0 0 0 0 0 0 0 0 0 0 0 0 0 0 0 0 0 0 0 0 0 0 0 0 0 0 0 0 0 0
0 0 0 0 0 0 0 0 0 0 0 0 0 0 0 0 0 0 0 0 0 0 0 0 0 0 0 0 0 0 0 0 0 0 0 0 0 0 0 0 0 0 0 0
0 0 0 0 0 0 0 0 0 0 0 0 0 0 0 0 0 0 0 0 0 0 0 0 0 0 0 0 0 0 0 0 0 0 0 0 0 0 0 0 0 0 0 0
0 0 0 0 0 0 0 0 0 0 0 0 0 0 0 0 0 0 0 0 0 0 0 0 0 0 0 0 0 0 0 0 0 0 0 0 0 0 0 0 0 0 0 0
0 0 0 0 0 0 0 0 0 0 0 0 0 0 0 0 0 0 0 0 0 0 0 0 0 0 0 0 0 0 0 0 0 0 0 0 0 0 0 0 0 0 0 0
0 0 0 0 0 0 0 0 0 0 0 0 0 0 0 0 0 0 0 0 0 0 0 0 0 0 0 0 0 0 0 0 0 0 0 0 0 0 0 0 0 0 0 0
0 0 0 0 0 0 0 0 0 0 0 0 0 0 0 0 0 0 0 0 0 0 0 0 0 0 0 0 0 0 0 0 0 0 0 0 0 0 0 0 0 0 0 0
0 0 0 0 0 0 0 0 0 0 0 0 0 0 0 0 0 0 0 0 0 0 0 0 0 0 0 0 0 0 0 0 0 0 0 0 0 0 0 0 0 0 0 0
0 0 0 0 0 0 0 0 0 0 0 0 0 0 0 0 0 0 0 0 0 0 0 0 0 0 0 0 0 0 0 0 0 0 0 0 0 0 0 0 0 0 0 0
0 0 0 0 0 0 0 0 0 0 0 0 0 0 0 0 0 0 0 0 0 0 0 0 0 0 0 0 0 0 0 0 0 0 0 0 0 0 0 0 0 0 0 0
0 0 0 0 0 0 0 0 0 0 0 0 0 0 0 0 0 0 0 0 0 0 0 0 0 0 0 0 0 0 0 0 0 0 0 0 0 0 0 0 0 0 0 0
0 0 0 0 0 0 0 0 0 0 0 0 0 0 0 0 0 0 0 0 0 0 0 0 0 0 0 0 0 0 0 0 0 0 0 0 0 0 0 0 0 0 0 0
0 0 0 0 0 0 0 0 0 0 0 0 0 0 0 0 0 0 0 0 0 0 0 0 0 0 0 0 0 0 0 0 0 0 0 0 0 0 0 0 0 0 0 0
0 0 0 0 0 0 0 0 0 0 0 0 0 0 0 0 0 0 0 0 0 0 0 0 0 0 0 0 0 0 0 0 0 0 0 0 0 0 0 0 0 0 0 0
0 0 0 0 0 0 0 0 0 0 0 0 0 0 0 0 0 0 0 0 0 0 0 0 0 0 0 0 0 0 0 0 0 0 0 0 0 0 0 0 0 0 0 0
0 0 0 0 0 0 0 0 0 0 0 0 0 0 0 0 0 0 0 0 0 0 0 0 0 0 0 0 0 0 0 0 0 0 0 0 0 0 0 0 0 0 0 0
0 0 0 0 0 0 0 0 0 0 0 0 0 0 0 0 0 0 0 0 0 0 0 0 0 0 0 0 0 0 0 0 0 0 0 0 0 0 0 0 0 0 0 0
0 0 0 0 0 0 0 0 0 0 0 0 0 0 0 0 0 0 0 0 0 0 0 0 0 0 0 0 0 0 0 0 0 0 0 0 0 0 0 0 0 0 0 0
Wind_Speed
4 6 12 14 13 5 5 5 6 5 3 4 10 14 13 9 7 10 10 10 10 11 9 6 6 5 4 4 5 6 6 6 5 3 4 4 5 5 4 5 6 6 6 7
5 14 12 6 7 7 6 7 6 4 2 4 7 13 11 11 11 11 11 12 11 9 7 6 5 5 5 5 5 5 6 6 6 5 4 3 3 3 4 3 4 6 6 6
15 6 8 8 8 10 11 10 7 5 3 2 5 12 9 8 7 8 10 10 9 10 10 7 6 6 4 5 6 5 6 6 6 5 3 2 2 1 1 2 4 5 6 6
11 7 5 8 10 11 13 8 6 5 3 5 1 10 9 6 8 11 11 9 10 9 8 7 6 6 6 6 5 5 5 4 4 5 5 6 5 5 5 3 3 3 4 6
10 8 10 12 11 11 6 4 6 5 5 6 4 8 12 3 9 10 10 10 10 9 9 9 8 7 6 5 4 4 4 4 4 4 5 6 5 5 2 2 2 3 3 4
6 4 9 10 6 9 5 4 2 1 2 11 11 9 13 7 10 7 7 8 9 8 8 7 6 5 4 3 3 3 4 3 3 4 5 5 6 5 3 2 3 3 3 3
8 7 5 4 6 6 7 6 3 4 7 11 6 9 15 8 8 8 8 8 7 7 7 6 6 5 5 4 3 3 4 3 3 4 4 5 5 5 4 4 3 3 2 3
11 10 11 9 10 10 11 11 10 8 7 5 5 13 12 7 7 7 8 7 6 6 6 6 7 6 5 4 4 4 4 3 3 3 3 3 3 3 2 3 2 3 3 4
11 9 5 9 7 12 10 11 7 3 2 5 8 9 11 5 6 7 7 6 7 7 6 6 5 4 4 4 4 4 4 3 3 3 3 2 2 2 2 2 2 3 3 3
6 5 5 5 4 6 8 9 6 8 8 9 8 8 8 5 8 7 7 8 8 6 5 5 4 4 3 3 3 3 4 4 3 2 2 2 1 1 1 1 2 2 3 3
5 5 3 6 12 14 9 9 8 7 7 8 8 10 8 9 8 8 8 7 6 6 6 5 4 3 3 2 3 3 3 3 2 2 2 2 1 0 0 1 2 3 3 3
7 5 6 8 5 7 10 12 12 10 8 6 6 11 5 7 7 6 6 5 4 5 4 4 3 3 3 3 3 3 3 2 2 2 2 1 1 1 1 1 2 3 3 3
8 7 5 3 4 4 8 9 11 8 6 7 9 12 3 2 4 5 5 5 4 5 4 4 4 4 4 3 3 2 2 2 2 2 2 1 1 1 1 2 3 3 3 4
7 6 9 12 7 7 8 10 12 11 10 12 16 16 9 5 5 5 5 5 5 5 5 5 5 4 4 4 3 3 2 2 2 2 2 1 1 1 2 2 3 3 4 4
5 7 7 8 5 5 8 11 14 17 17 14 15 17 17 10 8 8 6 5 5 6 6 6 6 5 4 3 3 3 2 2 2 2 1 1 1 1 2 2 3 4 4 4
5 5 4 7 7 7 8 12 16 18 17 18 15 19 15 9 6 7 8 8 9 9 8 8 6 6 6 5 4 3 3 2 2 2 1 1 1 2 2 3 3 4 4 5
7 5 5 7 5 3 12 16 17 15 14 13 21 25 12 9 10 11 11 11 11 11 9 9 9 8 7 6 5 5 4 3 2 2 1 0 1 2 2 3 4 4 5 5
9 7 4 3 4 13 12 7 12 15 16 16 15 15 13 14 11 10 11 12 12 11 9 8 8 7 6 5 4 3 3 3 2 1 0 0 1 2 2 3 4 4 4 5
11 10 6 5 7 9 8 6 10 13 16 16 19 19 15 7 3 9 10 11 11 10 9 8 7 6 5 5 5 5 4 3 2 2 1 1 1 2 3 3 4 4 5 5
9 9 7 6 7 10 11 7 6 6 12 13 16 19 14 6 8 13 8 9 9 7 6 6 5 5 5 4 5 5 4 3 3 2 1 1 2 2 3 4 5 4 5 6
10 10 13 11 9 10 10 4 9 9 12 7 11 13 11 12 14 8 4 5 6 5 5 5 5 5 5 5 5 5 4 3 2 0 1 2 2 3 3 4 4 5 5 6
11 9 11 9 10 14 6 8 12 10 4 2 4 7 8 8 7 5 4 4 5 4 4 5 5 4 3 4 5 5 3 1 1 0 1 2 3 3 3 4 5 5 5 6
9 10 7 11 11 6 7 8 6 3 4 4 4 4 5 5 5 4 3 4 4 4 4 4 5 4 3 3 3 4 2 1 1 0 2 3 3 3 3 4 5 4 4 4
5 3 4 6 8 5 5 5 4 4 4 4 3 3 3 5 4 4 3 3 3 3 3 3 5 4 3 2 2 2 2 1 1 1 2 2 3 3 3 3 3 4 4 5
7 5 5 8 7 4 6 6 6 4 3 2 2 2 3 4 4 4 3 3 3 3 3 3 4 4 3 2 2 2 2 1 0 1 2 2 3 3 4 4 4 5 5 6
7 8 8 9 7 6 6 4 4 5 5 5 4 3 1 3 4 4 4 3 3 3 3 3 3 3 2 2 2 2 2 1 0 1 2 2 3 3 3 5 5 8 9 12
Wind_Direction
177 192 210 206 206 212 185 199 226 236 236 217 241 255 259 260 252 252 253 249 245 245 250 245 230 219 210 207 200 201 197 199 179 172 185 196 214 217 215 216 216 214 215 213
190 224 219 195 199 218 218 230 240 267 259 230 267 269 259 246 241 236 240 242 240 242 249 239 230 220 209 207 203 200 201 194 187 191 185 183 184 204 214 215 219 219 219 217
209 220 182 186 198 211 225 224 224 239 323 307 311 288 261 256 241 245 240 238 236 228 232 232 227 223 211 210 207 199 198 194 191 185 153 127 117 106 179 217 227 228 224 223
228 228 184 193 208 198 233 216 206 219 246 270 236 282 273 254 259 249 244 237 236 233 228 226 221 217 212 215 206 195 190 184 184 175 172 175 186 205 217 221 229 237 228 230
217 190 191 209 210 187 215 168 184 204 223 264 227 256 273 245 254 252 243 238 236 230 222 221 217 214 210 202 190 182 171 168 166 168 178 183 201 218 224 218 237 245 241 236
230 198 197 208 194 177 153 102 79 132 206 251 223 222 268 216 225 240 239 237 234 230 224 224 221 207 201 192 179 168 157 164 163 164 171 181 197 209 215 228 240 249 249 245
225 226 217 171 154 167 164 158 200 218 224 244 191 217 254 228 220 221 234 239 236 227 216 213 207 200 196 189 182 171 159 164 164 164 173 186 197 203 214 228 239 253 261 258
203 222 200 190 182 181 191 185 198 208 219 254 197 230 252 242 235 236 241 242 238 228 214 209 205 197 192 185 175 166 161 163 162 163 176 186 191 200 219 234 240 249 256 261
195 225 188 192 176 163 178 206 201 190 241 257 245 261 291 265 255 245 243 240 236 228 216 210 201 188 181 174 169 164 157 152 155 163 165 170 180 194 223 243 244 251 264 275
173 214 208 179 153 198 177 160 161 194 207 238 255 241 240 231 231 235 233 232 234 225 213 201 188 181 174 165 152 137 136 140 139 139 148 140 164 196 233 253 275 282 285 286
185 197 200 174 193 189 170 184 189 191 197 202 246 253 219 211 212 216 227 229 225 214 204 195 185 175 158 139 132 128 126 126 122 122 117 111 103 84 19 301 301 300 302 305
182 188 218 224 231 204 194 196 188 197 214 209 235 259 228 209 219 215 228 233 223 207 198 187 175 165 159 156 152 144 138 133 136 130 112 92 55 32 15 328 311 312 311 309
167 183 202 240 240 212 214 211 206 205 195 205 224 257 243 206 236 229 227 229 211 198 186 173 173 179 177 171 163 149 138 135 123 115 105 81 46 29 357 329 322 323 318 315
181 191 206 218 212 184 207 210 201 200 219 230 232 248 254 242 244 245 233 220 206 203 196 189 193 192 186 181 172 160 152 136 125 116 112 94 32 360 340 333 328 322 319 318
185 216 229 246 240 196 209 212 208 214 222 228 239 241 248 237 229 234 231 212 205 212 208 203 202 201 195 187 184 171 158 141 128 119 108 79 23 6 353 339 328 321 318 313
185 212 216 247 239 226 232 225 220 224 228 235 249 255 249 241 221 224 223 215 215 217 211 206 204 200 201 198 195 182 176 167 147 142 129 67 30 9 352 338 330 327 322 318
190 186 198 240 232 226 240 222 216 220 219 217 236 248 248 234 221 222 222 219 219 217 208 203 202 202 204 201 193 190 185 163 151 149 129 62 7 343 332 329 328 323 318 315
192 189 198 215 188 227 237 211 208 221 232 224 235 248 241 233 229 225 218 212 216 213 209 206 202 201 197 186 179 175 157 152 151 142 124 350 324 310 312 314 313 311 308 307
199 192 198 200 228 258 274 228 197 208 238 227 232 246 250 239 251 256 229 211 211 209 206 202 197 192 180 176 170 156 153 153 153 172 202 251 281 296 304 304 304 304 303 301
198 193 200 205 215 231 241 224 187 174 251 237 223 238 243 190 233 253 219 199 206 202 191 185 174 163 166 169 154 152 163 165 185 205 231 250 264 278 289 295 295 290 289 290
189 202 215 220 231 250 247 197 138 182 238 238 215 230 226 207 227 242 187 182 185 180 176 164 155 159 168 154 150 160 166 189 203 212 270 271 274 278 281 287 287 290 292 293
190 197 207 205 221 242 210 159 186 217 241 255 230 232 225 227 236 229 200 180 164 161 154 146 145 148 136 140 151 160 174 169 102 45 295 289 289 286 285 284 288 289 292 295
207 202 197 204 221 235 172 197 218 214 229 240 233 239 214 213 218 210 192 174 163 160 149 139 141 132 115 121 144 159 155 115 106 78 281 285 291 287 285 283 289 294 290 290
238 211 205 235 248 242 233 250 258 238 235 252 247 237 197 197 199 187 172 159 148 139 136 133 134 139 137 119 106 113 103 92 115 222 266 277 289 294 292 287 281 281 284 287
213 191 211 241 255 272 257 240 250 258 255 276 283 241 210 189 193 179 166 163 160 147 136 137 148 154 150 120 94 80 76 83 92 283 295 305 302 297 298 288 273 275 265 261
202 196 205 231 224 223 241 232 224 228 239 238 232 250 239 181 188 168 159 154 147 140 129 129 134 137 128 111 86 46 37 54 80 313 314 308 301 300 297 298 298 285 283 286